Tracking 25734 objects as of 27-May-2022
HD Live streaming from Space Station
objects crossing your sky now

HINCUBE

Track HINCUBE now!
10-day predictions
HINCUBE is classified as:


NORAD ID: 39445
Int'l Code: 2013-066AF
Perigee: 585.6 km
Apogee: 667.5 km
Inclination: 97.6 °
Period: 97.1 minutes
Semi major axis: 6997 km
RCS: Unknown
Launch date: November 21, 2013
Source: Norway (NOR)
Launch site: Orenburg, Russia (OREN)

Uplink (MHz):
Downlink (MHz): 437.305
Beacon (MHz):
Mode:
Call sign:
Status: Inactive

aabbcc
Your satellite tracking list
Your tracking list is empty




NASA's NSSDC Master Catalog

Two Line Element Set (TLE):
1 39445U 13066AF  22147.18462069  .00002296  00000-0  27954-3 0  9992
2 39445  97.6237 121.8711 0058555 104.5091 256.2629 14.83139721458491
Source of the keplerian elements: AFSPC